Regional Weather Roundup
Issued by NWS Pendleton, OR

Home | Current Version | Previous Version | Text Only | Print | Product List | Glossary On
Versions: 1 2 3 4 5 6 7 8 9 10 11 12 13 14 15 16 17 18 19 20 21 22 23 24 25 26 27 28 29 30 31 32 33 34 35 36 37 38 39 40 41 42 43 44 45 46 47 48 49 50
000
ASUS46 KPDT 271125
RWRPDT
PENDLETON REGIONAL WEATHER ROUNDUP
NATIONAL WEATHER SERVICE PENDLETON OREGON
400 AM PDT WED JUL 27 2016

NOTE: FAIR INDICATES FEW OR NO CLOUDS BELOW 12,000 FEET WITH NO
SIGNIFICANT WEATHER AND/OR OBSTRUCTIONS TO VISIBILITY.

# INDICATES UNOFFICIAL STATION AND DATA

WAZ520-271210-
EAST SLOPES OF WASHINGTON CASCADES

CITY            SKY/WX      TMP DP  RH  WIND    PRES   REMARKS
#CLE ELUM HS    N/A         58  53  83  CALM    30.04R
#CLE ELUM 2NW   N/A         57  52  83  CALM    N/A
#GLENWOOD       N/A         51  49  93  CALM    29.97R
#MANASTASH CYN  N/A         61  46  58  CALM    30.05S
#NELSON 3SW     N/A         55  49  80  CALM    30.15R
#NILE           N/A         54  50  86  CALM    29.29S
#RONALD 2NW     N/A         57  N/A N/A N2      30.16S
#TEANAWAY 4NE   N/A         56  54  93  CALM    N/A
#TROUT LAKE 1NE N/A         53  50  89  NW1     29.96R
#TROUT LAKE 1E  N/A         54  51  90  CALM    30.02R
$$

WAZ521-271210-
SIMCOE HIGHLANDS

CITY            SKY/WX      TMP DP  RH  WIND    PRES   REMARKS
#CENTERVILLE 1SWN/A         56  48  74  CALM    29.92R
#GOLDENDALE 1NE N/A         57  46  67  N3      N/A
#GOLDENDALE 4W  N/A         56  56  100 CALM    30.06S
#GOODNOE HILLS  N/A         66  57  73  NW8     29.91S
#LYLE 6NE       N/A         61  57  87  SW6     29.93R
$$

WAZ026-271210-
KITTITAS VALLEY

CITY            SKY/WX      TMP DP  RH  WIND    PRES   REMARKS
ELLENSBURG AP   CLEAR       67  54  63  NW16    30.04R
#ELLENSBURG CWU N/A         65  55  70  NW7     29.91R
#ELLENSBURG 3NE N/A         65  56  73  N6      30.04R
#ELLENSBURG     N/A         68  58  70  NW2     N/A
#ELLENSBURG 1E  N/A         65  N/A N/A CALM    N/A
#KITTITAS 4N    N/A         60  52  75  E3      30.07S
#KITTITAS 3S    N/A         58  54  87  CALM    29.95R
#THORP 6N       N/A         60  54  81  N10     29.98R
$$

WAZ027-271210-
YAKIMA VALLEY

CITY            SKY/WX      TMP DP  RH  WIND    PRES   REMARKS
SUNNYSIDE AP    CLEAR       60  56  87  CALM    29.98R
YAKIMA AIRPORT  CLEAR       69  53  57  W5      30.01S
YAKIMA-VAGABOND N/A         68  53  59  E10     30.01R
#DONALD 2NE     N/A         71  35  27  N1      28.84R
#GRANDVIEW      N/A         67  53  61  CALM    29.95R
#MABTON         N/A         71  54  55  CALM    29.97R
#NACHES 2SW     N/A         67  53  61  W13     30.04R
#TERRACE HTS    N/A         71  54  55  CALM    29.88S
#TOPPENISH      N/A         71  55  57  CALM    29.85S
#WEST VALLEY    N/A         69  54  59  CALM    29.92R
#W YAKIMA       N/A         68  55  63  NE1     29.94R
#WHITE SWAN 5E  N/A         59  53  80  CALM    29.95R
#WILEY CITY 3W  N/A         63  43  48  CALM    29.99R
$$

WAZ028-271210-
LOWER COLUMBIA BASIN...WASHINGTON

CITY            SKY/WX      TMP DP  RH  WIND    PRES   REMARKS
HANFORD         CLEAR       73  54  51  NW10    29.97R
PASCO           CLEAR       69  57  66  NW3     29.96R
PROSSER AWOS    N/A         66  54  65  CALM    30.01R
RICHLAND AWOS   CLEAR       70  56  61  SW3     29.97R
#BENTON CITY    N/A         69  54  59  N1      29.83R
#CONNELL 5N     N/A         64  53  67  NW6     29.91R
#CONNELL 5NW    N/A         65  54  68  N7      29.87S
#ELTOPIA 6NW    N/A         65  57  75  CALM    28.95R
#KAHLOTUS       N/A         65  54  68  E7      29.89R
#KENNEWICK 3S   N/A         73  55  53  CALM    29.93R
#PATERSON       N/A         66  59  78  E1      29.93R
#SAGEMOOR 2W    N/A         68  57  68  NW3     29.78R
#TOUCHET 2S     N/A         72  58  61  SW7     29.90R
#WEST PASCO     N/A         71  56  59  CALM    29.94R
$$

WAZ029-271210-
FOOTHILLS OF THE BLUES...WASHINGTON

CITY            SKY/WX      TMP DP  RH  WIND    PRES   REMARKS
WALLA WALLA AP  CLEAR       72  53  51  SW10    29.99R
#CLYDE 6NW      N/A         66  53  63  CALM    29.89R
#DAYTON SCHOOL  N/A         65  47  52  N2      30.00R
#LOWDEN 2SE     N/A         64  57  78  CALM    29.93R
#PLEASANT VIEW 1N/A         66  53  63  S7      29.91R
#PRESCOTT       N/A         61  53  75  CALM    29.91R
#WHITMAN COLLEGEN/A         72  54  53  SE2     29.97R
#WAITSBURG 5S   N/A         67  53  61  S6      29.99R
#WAITSBURG 8N   N/A         67  27  22  S7      29.96S
#WHITMAN MISSIONN/A         64  58  81  CALM    29.94R
$$

WAZ030-271210-
BLUE MOUNTAINS...WASHINGTON

CITY            SKY/WX      TMP DP  RH  WIND    PRES   REMARKS
#DIXIE 5SE      N/A         67  51  56  SW7     30.01R
$$

ORZ009-041-WAZ024-271210-
COLUMBIA RIVER GORGE

CITY            SKY/WX      TMP DP  RH  WIND    PRES   REMARKS
HOOD RIVER AP   CLEAR       61  55  81  S3      30.03R
THE DALLES AP   CLEAR       68  57  68  NW8     29.99R
#ARLINGTON AIRPON/A         68  57  68  W5      29.95R
#LYLE           N/A         67  59  75  NE5     30.00R
#MARYHILL 2W    N/A         69  59  70  CALM    N/A
#MOSIER 1S      N/A         63  51  65  N2      30.00S
#MURDOCK        N/A         70  59  68  NW13G24 29.94R
#RUFUS DOT      N/A         73  57  57  W9      N/A
#SMITHVILLE     N/A         68  59  73  W14     29.90R

$$

ORZ510-271210-
NORTH CENTRAL OREGON

CITY            SKY/WX      TMP DP  RH  WIND    PRES   REMARKS
#ANTELOPE       N/A         52  44  74  CALM    29.81R
#CHENOWITH 1W   N/A         60  56  87  W16     N/A
#COW CYN RST AREN/A         62  N/A N/A CALM    N/A
#DUFUR 9E       N/A         67  52  59  W6      29.98S
#GRASS VALLEY 1SN/A         56  49  77  S1      30.00S
#KENT DOT       N/A         56  42  59  N6      N/A
#MAUPIN SCHOOL  N/A         63  53  70  CALM    30.05R
#SHANIKO 5WSW   N/A         62  43  50  N5      N/A
#SHANIKO 4NW    N/A         64  54  70  S2      30.11S
#TYGH VALLEY 2NEN/A         58  50  75  CALM    29.96S
#WAPANITIA AIRPON/A         58  52  80  W1      29.96R
#WASCO DOT      N/A         61  56  84  CALM    N/A
#WASCO AIRPORT  N/A         63  54  72  SW5     N/A
#WASCO 5NE      N/A         64  56  75  W5      29.93S
$$

ORZ511-271210-
CENTRAL OREGON

CITY            SKY/WX      TMP DP  RH  WIND    PRES   REMARKS
BEND AIRPORT    CLEAR       55  45  69  CALM    30.11S
MADRAS AIRPORT  CLEAR       59  52  78  SE3     30.09S
PRINEVILLE AP   CLEAR       50  43  77  CALM    30.11S
REDMOND AIRPORT CLEAR       53  39  59  S7      30.10R
#ASHWOOD SCHOOL N/A         53  41  64  CALM    30.05R
#BEND 1SW       N/A         51  43  74  NE1     N/A
#BEND-AWBREY    N/A         60  46  60  CALM    29.92S
#CULVER         N/A         55  46  72  CALM    29.88S
#CULVER 8W      N/A         53  42  66  CALM    30.06S
#LAKE BILLY CHINN/A         56  N/A N/A CALM    30.14R
#MADRAS 4S      N/A         54  22  28  S5      30.14S
#POWELL BUTTE 3EN/A         56  43  62  S2      N/A
#POWELL BUTTE   N/A         58  41  53  S1      29.98S
#PRINEVILLE 3N  N/A         51  42  71  NW3     30.02R
#WARM SPRINGS   N/A         62  48  60  CALM    30.03R

$$


ORZ509-271210-
EAST SLOPES OF OREGON CASCADES

CITY            SKY/WX      TMP DP  RH  WIND    PRES   REMARKS
SISTERS AWOS    N/A         46  41  83  CALM    30.08S
#CAMP SHERMAN   N/A         45  41  86  CALM    30.05R
#LA PINE DOT    N/A         46  42  86  CALM    N/A
#LA PINE 4NW    N/A         43  38  82  CALM    29.98S
#LAVA BUTTE DOT N/A         48  39  71  CALM    N/A
#SISTERS AIRPOR N/A         47  46  96  CALM    30.17S
#SISTERS ODOT   N/A         46  N/A N/A CALM    N/A
#SISTERS 3N     N/A         46  35  65  CALM    30.08S
#SUNRIVER       N/A         48  44  86  CALM    30.08S
#SUTTLE LK DOT  N/A         53  46  77  NE15    N/A
#TUMALO 3W      N/A         62  44  52  CALM    29.81S
#WANOGA BUTTE D N/A         60  36  41  W1      N/A

$$

ORZ044-271210-
LOWER COLUMBIA BASIN...OREGON

CITY            SKY/WX      TMP DP  RH  WIND    PRES   REMARKS
HERMISTON       CLEAR       63  55  75  SW3     29.98R
#BOARDMAN 8SW   N/A         67  59  75  SW6     29.94R
#ECHO 8SW       N/A         70  52  53  SW3     29.99R
#I-84 EX 198 DOTN/A         71  54  55  W1      N/A
#UMATILLA       N/A         67  55  65  CALM    29.88R
$$

ORZ507-271210-
NORTHERN FOOTHILLS OF THE BLUES

CITY            SKY/WX      TMP DP  RH  WIND    PRES   REMARKS
PENDLETON AIRPT CLEAR       65  47  52  S3      30.02R
#ADAMS 3WNW     N/A         61  50  67  CALM    29.93R
#ATHENA         N/A         57  50  77  CALM    29.96R
#CAYUSE         N/A         64  50  60  E2      29.93R
#HELIX SCHOOL   N/A         58  49  72  CALM    29.93R
#HELIX 3N       N/A         63  53  70  N10     30.00R
#HOLDMAN 5SE    N/A         63  53  70  CALM    30.00R
#HOLDMAN 6E     N/A         65  54  68  CALM    29.74R
#M-F GROVE ELEM N/A         67  49  52  CALM    29.98R
#M-FREEWATER 5SEN/A         66  53  63  CALM    30.00R
#PENDLETON DNTN N/A         62  44  52  CALM    30.04R
#PDT AQUATIC CTRN/A         62  41  46  CALM    29.83S
#PDT SUNRIDGE   N/A         58  47  67  CALM    30.03R
#PENDLETON 7NW  N/A         60  47  62  CALM    31.91S
#PILOT ROCK 1S  N/A         66  43  43  SE6     30.03R
#PILOT ROCK     N/A         62  43  50  SW2     30.05R
#TUTUILLA       N/A         54  47  77  CALM    29.97R
#UMAPINE 2E     N/A         71  57  61  CALM    29.95R
#WESTON SCHOOL  N/A         64  47  54  CALM    29.88R

$$

ORZ508-271210-
SOUTHERN FOOTHILLS OF THE BLUES

CITY            SKY/WX      TMP DP  RH  WIND    PRES   REMARKS
LEXINGTON       CLEAR       64  48  56  SE10    30.06R
#CONDON 5W      N/A         63  48  58  W3      30.07R
#HEPPNER EOC    N/A         61  47  60  SE6     29.88R
#HEPPNER 4NE    N/A         64  50  60  S1      29.91S
#LEXINGTON 2SE  N/A         62  49  62  SE5     29.99R
#RUGGS 5NE      N/A         58  43  57  SE2     30.27R
#RUGGS 2SW      N/A         61  47  60  SW2     29.94R

$$

ORZ502-503-271210-
BLUE MOUNTAINS

CITY            SKY/WX      TMP DP  RH  WIND    PRES   REMARKS
MEACHAM         CLEAR       46  42  86  CALM    30.13S
#BATTLE MTN DOT N/A         58  41  53  N6      N/A
#CUTSFORTH PARK N/A         47  41  79  CALM    29.91S
#GREENHORN 9SW  N/A         47  42  83  CALM    26.31S
#HARDMAN 10S    N/A         58  42  55  CALM    30.01S
#HEPPNER 15SE   N/A         52  39  61  CALM    30.05S
#LADD CYN SMT   N/A         53  45  74  N6      N/A
#LADD CREEK ODOTN/A         59  46  62  S2      N/A
#LONG CREEK HS  N/A         56  44  64  CALM    N/A
#N POWDER DOT   N/A         53  48  83  W3      N/A
#PIKES PEAK     N/A         67  51  56  SW17    27.99S
#TOLLGATE       N/A         55  45  69  CALM    30.02S
#TROY SCHOOL    N/A         64  52  65  CALM    29.78R
#UKIAH          N/A         45  42  89  CALM    29.89R
#WESTON 4E      N/A         64  48  56  CALM    29.87R
$$

ORZ505-271210-
JOHN DAY BASIN

CITY            SKY/WX      TMP DP  RH  WIND    PRES   REMARKS
JOHN DAY        CLEAR       62  45  54  CALM    30.11R
#DAYVILLE SCHOOLN/A         64  40  41  CALM    30.03R
#MITCHELL       N/A         57  44  62  E1      30.25R
#MITCHELL 8NW   N/A         65  38  37  CALM    30.10R
#MONUMENT HS    N/A         60  45  58  CALM    29.92R
#MT. VERNON 5SE N/A         61  44  53  CALM    30.08R
#SPRAY SCHOOL   N/A         59  N/A N/A CALM    N/A
$$

ORZ506-271210-
OCHOCO AND JOHN DAY HIGHLANDS

CITY            SKY/WX      TMP DP  RH  WIND    PRES   REMARKS
#BUCK CREEK DOT N/A         64  38  38  NW1     N/A
#HORSE RIDGE DO N/A         45  36  70  NE1     N/A
#KEYES SMT DOT  N/A         63  38  39  NW3     N/A
#PAULINA SCHOOL N/A         61  36  39  SW3     N/A
#PINE MTN OBS   N/A         62  37  39  NW2     N/A
#PRAIRIE CITY   N/A         53  46  77  CALM    30.26R
#SENECA         N/A         49  N/A N/A CALM    N/A
$$

ORZ049-271210-
GRANDE RONDE VALLEY

CITY            SKY/WX      TMP DP  RH  WIND    PRES   REMARKS
LA GRANDE       CLEAR       55  39  55  SE5     30.06R
#COVE           N/A         57  48  72  N3      30.09S
#COVE SCHOOL    N/A         54  44  69  CALM    30.08S
#COVE 6NW       N/A         54  46  74  CALM    29.95R
#ELGIN 3N       N/A         52  44  74  CALM    30.05R
#ELGIN 1E       N/A         54  47  77  CALM    N/A
#IMBLER SCHOOL  N/A         58  47  67  E5      30.02R
#ISLAND CITY 4N N/A         55  53  93  CALM    30.08R
#LADD CYN DOT   N/A         63  47  56  SE10    N/A
#UNION 1S       N/A         55  48  77  CALM    29.81S
$$

ORZ050-271210-
WALLOWA COUNTY

CITY            SKY/WX      TMP DP  RH  WIND    PRES   REMARKS
JOSEPH AIRPORT  CLEAR       59  46  62  S5      N/A
#ENTERPRISE AP  N/A         49  29  46  CALM    30.05S
#ENTERPRISE HS  N/A         52  48  86  CALM    30.11S
#IMNAHA SCHOOL  N/A         66  53  63  S2      30.01R
#IMNAHA 10S     N/A         64  50  60  SW5     30.06R
#JOSEPH 3N      N/A         50  43  77  CALM    30.13S
#LOSTINE        N/A         52  47  83  CALM    29.73R
#LOSTINE 3SE    N/A         52  46  80  CALM    30.09R
#MT HOWARD 8000 N/A         55  45  69  CALM    30.39R
#PROMISE 1S     N/A         58  47  67  CALM    29.99R
#WALLOWA SCHOOL N/A         52  48  86  CALM    30.05R



$$



USA.gov is the U.S. government's official web portal to all federal, state and local government web resources and services.